Regional Weather Roundup
Issued by NWS

Home | Current Version | Previous Version | Text Only | Print | Product List | Glossary Off
Versions: 1 2 3 4 5 6 7 8 9 10 11 12 13 14 15 16 17 18 19 20 21 22 23 24 25 26 27 28 29 30 31 32 33 34 35 36 37 38 39 40 41 42 43 44 45 46 47 48 49 50

460
ASUS44 KMEG 171210
RWRTN
TENNESSEE HOURLY STATE WEATHER ROUNDUP
NATIONAL WEATHER SERVICE MEMPHIS TN
600 AM CST WED JAN 17 2018

TNZ002-004-019-021-049-052-054-088>092-171300-
WEST TENNESSEE

CITY           SKY/WX    TMP DP  RH WIND       PRES   REMARKS
MEMPHIS INTL   FAIR       8   1  73 N7        30.70R WCI  -3
NWS MEMPHIS      N/A      5 N/A N/A MISG        N/A
JACKSON        CLOUDY     9   4  80 N9        30.69R WCI  -4
DYERSBURG      FLURRIES   6   2  83 NW3       30.72R
SOMERVILLE     PTCLDY     3   0  85 CALM      30.67S
COVINGTON      CLOUDY     1  -2  85 CALM      30.72S
UNION CITY     CLOUDY     9   5  85 N6        30.70S WCI  -1
BOLIVAR        CLOUDY     5   1  85 CALM      30.67S
PARIS          CLOUDY     7   3  85 N5        30.66R WCI  -2
HUNTINGDON     CLOUDY     7   3  85 CALM      30.66S
LEXINGTON      CLOUDY     9   5  85 N5        30.66S WCI   0
SELMER         CLOUDY     7   1  78 N8G15     30.65R WCI  -6
SAVANNAH       CLOUDY     9   5  85 N13       30.65R WCI  -7
$$

TNZ008-025-027-028-033-062-065-066-171300-
NORTH MIDDLE TENNESSEE

CITY           SKY/WX    TMP DP  RH WIND       PRES   REMARKS
NASHVILLE      FLURRIES   9   3  77 N10       30.62R WCI  -5
PORTLAND       CLOUDY     7   3  85 N7        30.59R WCI  -5
CLARKSVILLE    LGT SNOW   9   3  77 NW7       30.64R WCI  -2
SMYRNA         FLURRIES   8   4  83 N9        30.63R WCI  -5
COOKEVILLE     CLOUDY     5   1  85 VRB5      30.53R WCI  -4
GALLATIN       CLOUDY     9   3  78 NW8       30.64R WCI  -4
CROSSVILLE     CLOUDY     2  -2  83 N14G21    30.41R FOG     WCI -16
$$

TNZ061-075-076-078-094-096-097-171300-
SOUTH MIDDLE TENNESSEE

CITY           SKY/WX    TMP DP  RH WIND       PRES   REMARKS
FAYETTEVILLE   CLOUDY     7   1  78 N7        30.53S WCI  -5
TULLAHOMA      CLOUDY     5   0  78 N12       30.52S WCI -11
WINCHESTER     CLOUDY     3   0  85 N9        30.53R WCI -11
MCMINNVILLE    CLOUDY     5   0  78 N6        30.53S WCI  -6
COLUMBIA       CLOUDY     7   3  85 N8        30.60R WCI  -6
SHELBYVILLE    CLOUDY     7   3  85 N12       30.57R WCI  -9
$$

TNZ017-018-042-046-047-171300-
NORTHEAST TENNESSEE

CITY           SKY/WX    TMP DP  RH WIND       PRES   REMARKS
TRI CITIES     CLOUDY    17  11  77 N5        30.37R WCI  10
ELIZABETHTON   LGT SNOW  18  14  86 VRB5      30.35S WCI  11
$$

TNZ012-013-036-069-073-074-171300-
CENTRAL EAST TENNESSEE

CITY           SKY/WX    TMP DP  RH WIND       PRES   REMARKS
KNOXVILLE      CLOUDY     9   2  73 N14       30.45S WCI  -7
OAK RIDGE      FAIR       5   1  83 CALM      30.48S
DOWNTOWN KNOXV CLOUDY    10   3  72 VRB6      30.49S WCI   1
GATLINBURG     CLOUDY    12   5  73 NW6       30.44S WCI   3
MORRISTOWN     CLOUDY    10   5  79 N7        30.40S WCI   0
JACKSBORO      CLOUDY     5   0  78 VRB3      30.52R
$$

TNZ083-085-099-171300-
SOUTHEAST TENNESSEE

CITY           SKY/WX    TMP DP  RH WIND       PRES   REMARKS
CHATTANOOGA    MOCLDY     9   0  67 N13       30.49R WCI  -7
DAYTON         SUNNY      7   1  78 CALM      30.49S
$$

SKY/WX REPORTED AS FAIR MEANS FEW OR NO CLOUDS BELOW
12 THOUSAND FEET.





USA.gov is the U.S. government's official web portal to all federal, state and local government web resources and services.